This is the latest recevied weather packets stored in our database for station/object K0QJ. If no packets are shown the sender has not sent any weather packets the latest 1 day(s).
| Time | Temp. | Humidity | Pressure | Rain* | Wind** | Luminosity | Snow |
|---|---|---|---|---|---|---|---|
| 1778076138 | 10.56° C | 63% | 1017.5 hPa | 0 mm | - | 78 W/m² | - |
| 1778075531 | 10° C | 63% | 1017.3 hPa | 0 mm | - | 91 W/m² | - |
| 1778075228 | 10.56° C | 62% | 1017.2 hPa | 0 mm | - | 69 W/m² | - |
| 1778072500 | 8.89° C | 79% | 1016.6 hPa | 0 mm | - | 29 W/m² | - |
| 1778072198 | 8.89° C | 80% | 1016.7 hPa | 0 mm | - | 24 W/m² | - |
| 1778071291 | 8.89° C | 81% | 1016.4 hPa | 0 mm | - | 45 W/m² | - |
| 1778070988 | 8.89° C | 81% | 1016.4 hPa | 0 mm | - | 49 W/m² | - |
| 1778070687 | 8.89° C | 81% | 1016.2 hPa | 0 mm | - | 39 W/m² | - |
| 1778070383 | 8.33° C | 82% | 1016.1 hPa | 0 mm | - | 46 W/m² | - |
| 1778070081 | 8.33° C | 84% | 1016.1 hPa | 0 mm | - | 42 W/m² | - |
| 1778069173 | 7.78° C | 85% | 1015.5 hPa | 0 mm | - | 29 W/m² | - |
| 1778068870 | 7.78° C | 85% | 1015.6 hPa | 0 mm | - | 13 W/m² | - |
| 1778068266 | 7.78° C | 85% | 1015.2 hPa | 0 mm | - | 14 W/m² | - |
| 1778067963 | 7.78° C | 85% | 1015.1 hPa | 0 mm | - | 12 W/m² | - |
| 1778067661 | 7.78° C | 85% | 1015.2 hPa | 0 mm | - | 16 W/m² | - |
| 1778066752 | 7.78° C | 83% | 1015 hPa | 0 mm | - | 1 W/m² | - |
| 1778066148 | 7.78° C | 82% | 1015.1 hPa | 0 mm | - | 0 W/m² | - |
| 1778065542 | 7.78° C | 83% | 1015.4 hPa | 0 mm | - | 0 W/m² | - |
| 1778064935 | 7.22° C | 89% | 1015.6 hPa | 0 mm | - | 0 W/m² | - |
| 1778063725 | 7.22° C | 90% | 1016.1 hPa | 0 mm | - | 0 W/m² | - |
| 1778063422 | 7.22° C | 90% | 1015.9 hPa | 0 mm | - | 0 W/m² | - |
| 1778062514 | 7.78° C | 89% | 1015.9 hPa | 0 mm | - | 0 W/m² | - |
| 1778062211 | 7.78° C | 89% | 1015.7 hPa | 0 mm | - | 0 W/m² | - |
| 1778061306 | 7.78° C | 89% | 1014.8 hPa | 0 mm | - | 0 W/m² | - |
| 1778061001 | 7.78° C | 89% | 1014.7 hPa | 0 mm | - | 0 W/m² | - |
* Rain latest hour (hover to see other rain measurements)
** Current wind speed in m/s (hover to see current wind gust speed)